Home > Weather > Stade > Past weeks

Flag for Germany Past Weather in Stade, Lower Saxony, Germany — Yesterday and Last 2 Weeks

Now
57 °F

Sunny.


Feels Like: 57 °F
Forecast: 52 / 75 °F
Wind: 3 mph from North

Location: Hamburg-Finkenwerder

Current Time: Aug 30, 2016 at 9:29:28 AM

Latest Report: Aug 30, 2016 at 8:50 AM


Visibility: 10 mi

Pressure: 30.27 "Hg

Humidity: 100%

Dew Point: 57 °F

Location of StadeLocation

Past Weather in Stade — Graph

°F

Stade Temperature Yesterday

Maximum temperature yesterday: 68 °F (at 12:50 PM)
Minimum temperature yesterday: 63 °F (at 5:50 AM)
Average temperature yesterday: 65 °F

High & Low Weather Summary for the Past Weeks

 TemperatureHumidityPressure
High90 °F (Aug 25, 2:50 PM)100% (Aug 15, 7:20 AM)30.30 "Hg (Aug 15, 7:20 AM)
Low48 °F (Aug 16, 5:20 AM)33% (Aug 25, 4:50 PM)29.80 "Hg (Aug 19, 6:20 PM)
Average68 °F75%30.06 "Hg
* Reported Aug 15 7:20 AM — Aug 30 7:50 AM, Stade, Weather by CustomWeather, © 2016

Note: Actual official high and low records may vary slightly from our data, if they occured in-between our weather recording intervals... More about our weather records

Advertising

Stade Weather History for the Previous 24 Hours

Scroll right to see more
 ConditionsComfort  
Time TempWeatherWind HumidityBarometerVisibility
7:50 AM
Tue, Aug 30
54 °FSunny.3 mph100%30.24 "Hg10 mi
7:20 AM52 °FClear.5 mph100%30.24 "Hg10 mi
6:50 AM52 °FClear.5 mph100%30.24 "Hg10 mi
6:20 AM52 °FClear.3 mph100%30.24 "Hg10 mi
5:50 AM52 °FClear.3 mph100%30.24 "Hg10 mi
7:20 PM
Mon, Aug 29
64 °FPassing clouds.13 mph64%30.09 "HgN/A
6:50 PM64 °FScattered clouds.15 mph64%30.09 "HgN/A
6:20 PM66 °FScattered clouds.15 mph64%30.09 "HgN/A
5:50 PM66 °FScattered clouds.15 mph64%30.07 "HgN/A
5:20 PM66 °FScattered clouds.18 mph64%30.07 "HgN/A
4:50 PM66 °FScattered clouds.17 mph64%30.07 "HgN/A
4:20 PM66 °FScattered clouds.16 mph64%30.07 "HgN/A
3:50 PM66 °FScattered clouds.17 mph68%30.04 "HgN/A
3:20 PM66 °FScattered clouds.17 mph73%30.04 "HgN/A
2:50 PM66 °FBroken clouds.16 mph78%30.04 "HgN/A
2:20 PM68 °FScattered clouds.15 mph64%30.04 "HgN/A
1:50 PM66 °FBroken clouds.15 mph73%30.01 "HgN/A
1:20 PM68 °FScattered clouds.16 mph69%30.01 "HgN/A
12:50 PM68 °FScattered clouds.15 mph69%30.01 "HgN/A
12:20 PM66 °FScattered clouds.13 mph88%29.98 "HgN/A
11:50 AM64 °FScattered showers. Broken clouds.9 mph88%29.98 "HgN/A
11:20 AM64 °FBroken clouds.12 mph94%29.98 "HgN/A
10:50 AM64 °FSprinkles. Broken clouds.12 mph100%29.95 "HgN/A
10:20 AM63 °FBroken clouds.9 mph100%29.95 "HgN/A
9:50 AM63 °FScattered showers. Broken clouds.12 mph100%29.95 "Hg6 mi
9:20 AM63 °FLight rain. Broken clouds.9 mph100%29.92 "Hg3 mi
Weather by CustomWeather, © 2016

See weather overviewHow to use our weather pages